Temperature
15 16 16 16 16 15 15 14 14 15 15 17 16 16 17 18 18 18 17 18 18 18 18 18 17 17 17 17 16 16 16 16 16 16 16 16 15 15 15 15 15 15 15 15
15 15 15 16 16 16 16 15 15 15 16 16 17 17 17 17 17 17 17 17 18 18 18 18 17 17 17 17 16 16 16 16 16 16 16 16 15 15 15 15 15 15 15 15
13 14 15 15 16 16 16 16 16 16 16 16 16 16 17 17 18 18 18 18 18 18 18 18 18 17 17 17 16 16 16 16 16 16 16 16 15 15 15 15 15 15 15 15
12 14 14 15 16 16 16 16 16 16 16 16 17 18 18 18 18 18 18 18 18 18 18 18 18 17 17 17 16 16 16 16 16 16 16 15 15 15 15 15 15 15 15 15
11 12 13 15 16 16 16 16 16 16 16 17 17 17 17 18 19 19 19 19 18 18 18 18 18 17 17 17 17 16 16 16 16 15 15 15 15 15 15 15 15 15 15 15
11 12 13 15 16 17 16 15 16 16 16 16 16 15 16 19 19 18 18 18 18 18 18 18 18 17 17 17 17 16 16 16 16 15 15 15 15 15 15 15 15 15 15 14
11 12 12 14 16 16 15 15 16 17 17 16 16 16 18 18 18 18 18 18 18 18 18 18 17 17 17 17 17 16 16 16 16 16 15 15 15 15 15 15 15 14 14 14
10 11 12 15 15 15 15 17 17 17 17 17 17 18 18 18 18 18 18 18 18 18 17 17 17 17 17 17 17 17 16 16 16 16 15 15 15 15 15 14 14 14 14 14
11 13 14 15 16 17 17 17 17 17 17 17 17 17 18 17 18 18 18 18 18 18 17 17 17 17 17 17 17 17 16 16 16 16 15 15 15 15 15 14 14 14 14 14
11 12 14 15 16 17 17 17 17 17 17 17 17 17 17 17 17 17 18 18 18 17 17 17 17 17 17 17 17 17 16 16 16 16 15 15 15 15 14 14 14 14 14 14
11 11 13 15 16 16 16 17 17 17 17 17 17 17 17 17 17 17 17 17 17 17 17 17 17 17 17 17 17 16 16 16 16 16 15 15 15 14 14 14 14 14 14 14
11 12 12 14 15 15 16 16 16 16 16 16 17 17 17 17 17 17 17 17 17 17 17 17 17 17 17 16 16 16 16 16 16 16 15 15 15 14 14 14 13 13 13 13
13 13 13 14 14 14 15 16 16 16 16 16 16 16 16 16 16 16 17 17 17 17 17 17 17 17 17 16 16 16 16 16 16 15 15 15 15 14 14 14 13 13 13 13
12 13 13 13 14 14 14 15 15 15 15 16 16 16 16 16 16 16 16 16 16 16 16 16 16 16 16 16 16 16 16 16 15 15 15 15 14 14 14 13 13 13 13 12
12 12 13 13 13 13 14 14 14 14 15 15 15 15 15 15 15 16 16 16 16 16 16 16 16 16 16 16 15 15 15 15 15 15 15 14 14 14 13 13 13 13 13 12
12 12 12 12 12 13 13 13 14 14 14 14 14 15 15 15 15 15 15 15 15 15 16 16 16 16 16 15 15 15 15 15 15 15 14 14 13 13 13 13 13 13 12 12
11 11 11 11 12 12 13 13 13 13 14 14 14 14 14 14 14 14 15 15 15 15 15 15 15 15 15 15 15 15 15 15 14 14 14 14 13 13 13 13 12 12 12 12
11 11 11 11 11 12 12 13 13 13 13 14 14 13 13 14 14 14 14 14 15 15 15 15 15 15 15 15 15 15 14 14 14 14 13 13 13 13 12 12 12 12 12 11
10 11 11 11 11 11 12 12 12 12 13 13 13 13 13 13 14 14 14 14 14 14 14 14 14 15 15 14 14 14 14 14 14 13 13 13 12 12 12 12 11 11 11 11
10 10 10 11 11 11 11 12 12 12 12 13 13 13 13 13 13 13 14 14 14 14 14 14 14 14 14 14 14 14 14 13 13 13 13 12 12 12 12 11 11 11 10 10
10 10 10 10 10 11 11 11 12 12 12 12 12 12 12 12 13 13 13 13 13 13 13 13 14 14 14 13 13 13 13 13 13 13 12 12 12 11 11 11 11 10 10 10
9 10 10 10 10 10 11 11 11 11 11 11 12 12 12 12 12 12 13 13 13 13 13 13 13 13 13 13 13 13 13 12 12 12 12 12 11 11 11 11 10 10 10 10
9 9 9 10 10 10 10 10 11 11 11 11 11 12 12 12 12 12 12 12 12 12 12 13 12 12 12 12 12 12 12 12 12 12 11 11 11 11 11 10 10 10 10 9
8 9 9 9 9 10 10 10 10 10 11 11 11 11 11 11 11 11 12 12 12 12 12 12 12 12 12 12 12 12 12 11 11 11 11 11 10 10 10 10 10 9 9 9
8 8 9 9 9 9 9 9 10 10 10 10 10 11 11 11 11 11 11 11 11 11 11 11 11 11 11 11 11 11 11 11 11 11 10 10 10 10 10 9 9 9 9 8
7 8 8 8 8 8 9 9 9 9 9 9 10 10 10 10 10 10 10 11 11 11 10 10 10 10 10 10 10 10 10 10 10 10 10 10 10 9 9 9 9 8 8 8
7 7 7 7 8 8 8 8 9 9 9 9 9 9 9 9 9 9 10 10 10 10 10 10 10 10 10 10 10 9 10 9 9 9 9 9 9 9 8 8 8 8 7 7
Wind_Speed
6 5 5 6 7 7 7 8 8 8 8 10 8 7 5 3 2 2 3 4 5 6 5 5 6 6 6 7 7 7 7 7 6 6 5 5 6 5 5 5 5 4 4 4
4 4 5 7 9 10 9 8 8 7 9 8 6 3 3 3 3 4 5 5 5 6 5 6 7 6 6 7 7 7 7 7 6 6 6 6 6 6 6 5 4 4 4 4
4 4 2 8 10 10 8 7 8 9 9 4 3 4 5 5 5 6 6 6 6 6 7 7 7 8 8 8 7 7 7 6 6 6 7 7 7 7 6 6 5 5 4 5
2 1 7 9 5 7 8 8 8 7 7 6 6 6 5 5 6 6 6 6 6 6 6 6 6 6 7 7 8 8 7 7 6 7 7 7 7 7 6 5 5 5 5 5
3 4 7 8 5 7 6 7 7 8 7 5 3 2 4 3 5 6 7 6 6 6 6 5 6 7 7 7 7 7 7 7 7 8 8 8 8 7 5 5 5 4 4 5
4 4 7 7 4 4 4 6 5 7 6 3 3 1 5 4 3 4 3 4 4 4 4 5 6 7 8 8 8 8 8 7 7 8 8 8 8 7 5 5 5 5 4 4
7 6 8 8 4 4 5 7 4 6 6 5 6 7 5 3 3 3 3 3 4 5 5 6 6 8 8 8 9 8 7 7 7 7 8 8 7 6 6 6 6 5 4 3
6 6 9 5 5 7 7 3 3 5 5 5 5 4 2 2 3 3 3 3 5 5 4 4 6 8 8 8 7 7 7 8 7 7 7 7 7 6 6 7 7 5 4 3
9 9 6 4 6 5 4 3 3 4 4 5 4 4 3 3 3 3 4 4 4 5 5 4 6 8 9 7 7 8 8 8 7 7 6 7 8 7 6 5 5 5 5 4
5 8 7 6 6 4 4 5 4 4 4 5 5 4 3 3 3 3 3 4 4 5 5 5 5 6 7 6 8 9 9 8 7 7 7 6 6 6 6 6 6 6 5 5
7 7 5 5 6 5 4 4 3 3 4 6 6 5 4 3 4 4 4 4 5 6 6 6 5 5 5 7 8 8 8 7 7 7 7 7 6 5 6 6 7 8 7 7
7 6 5 7 6 5 5 6 5 4 4 4 5 5 4 4 4 4 4 4 5 5 5 5 5 5 5 7 9 9 8 7 6 6 6 6 6 3 2 3 6 8 8 8
9 8 8 8 7 6 7 6 5 6 6 6 5 5 5 4 3 3 4 5 5 6 6 6 5 5 5 7 8 9 9 8 7 7 6 6 6 6 4 2 4 5 7 8
8 6 7 7 7 6 5 5 4 4 5 5 5 4 4 3 3 3 5 6 5 5 6 6 6 5 6 7 8 8 8 8 8 7 6 6 6 6 5 5 4 2 3 6
8 7 8 7 5 5 4 3 3 3 3 3 4 4 5 5 4 4 4 4 4 4 5 5 6 5 5 7 8 8 7 6 7 6 6 6 6 5 5 5 5 4 3 3
7 6 5 6 6 5 4 3 4 5 4 3 3 4 4 4 3 3 3 5 6 6 5 6 6 5 6 7 8 7 6 8 8 7 6 6 6 6 6 5 5 5 4 4
5 6 6 6 7 6 5 5 5 5 4 4 4 4 3 3 3 2 3 5 6 6 5 6 5 5 6 7 8 6 6 7 9 8 7 7 7 6 6 6 5 5 4 5
8 9 8 8 7 6 5 4 4 4 4 4 4 4 4 5 5 4 3 4 4 3 3 4 5 5 6 7 7 6 6 6 7 7 6 6 6 6 6 6 6 5 4 4
7 8 8 8 7 6 5 4 4 4 3 4 5 5 5 5 4 3 4 5 5 4 3 4 6 6 6 7 7 6 7 7 7 6 6 7 7 5 5 5 5 5 5 5
5 6 6 6 4 4 4 4 3 3 3 4 4 4 3 3 3 4 5 4 4 4 4 5 5 5 6 7 8 6 7 8 7 7 6 6 6 6 6 6 5 5 5 5
5 4 3 3 3 2 3 3 3 3 3 4 5 5 5 4 4 4 5 3 2 2 4 5 4 4 5 7 8 6 7 7 7 7 7 7 6 6 6 6 6 5 5 5
3 2 1 1 1 0 0 1 2 3 3 3 3 4 4 3 3 3 3 3 3 4 4 4 3 5 7 8 6 6 7 7 7 6 7 7 7 7 6 6 6 6 5 5
2 1 1 1 2 1 1 1 1 2 2 3 3 4 5 4 4 4 3 2 3 4 3 3 4 6 8 6 5 6 7 7 7 6 6 6 6 7 7 7 6 6 6 5
3 2 2 2 2 3 2 2 2 1 1 1 2 3 4 3 2 2 3 4 4 4 3 4 6 7 7 4 5 5 6 6 6 6 6 6 6 6 6 6 6 5 6 6
3 3 2 3 2 1 1 1 2 2 2 1 1 1 1 3 3 3 3 4 5 5 3 5 7 7 5 4 5 5 5 5 6 6 6 6 6 6 6 6 6 6 6 6
2 2 2 1 0 0 0 1 1 1 1 1 1 1 1 2 2 3 3 4 5 5 4 4 4 5 4 4 5 5 5 5 6 5 6 6 6 6 6 6 7 6 6 6
3 2 2 2 2 1 1 1 1 1 1 1 1 0 1 2 3 3 3 3 4 3 3 3 3 4 4 4 4 4 4 5 5 5 5 5 6 6 6 7 6 6 6 7
Wind_Direction
236 238 228 235 226 202 200 195 199 232 240 258 260 257 257 248 231 191 183 181 181 182 183 185 185 185 182 182 174 169 167 174 182 178 172 162 161 161 152 150 155 152 147 145
253 243 239 254 241 218 219 211 215 235 255 257 262 257 247 225 205 212 209 205 200 190 184 195 192 189 183 184 179 168 172 178 171 164 163 162 161 157 149 149 148 146 152 150
253 267 285 253 230 211 210 206 192 215 234 248 253 244 235 224 213 211 214 208 203 200 199 203 198 188 185 181 169 166 170 170 166 162 161 165 160 152 155 157 152 152 156 151
228 199 233 244 228 204 211 227 211 214 225 224 233 245 241 216 209 218 213 207 208 206 206 203 193 184 174 165 166 168 168 168 167 161 161 157 154 160 161 154 156 160 160 160
178 223 269 285 240 185 191 239 223 214 223 228 244 321 291 239 212 213 208 204 205 202 197 192 185 174 163 162 164 167 171 171 170 166 163 162 164 167 161 152 155 159 157 158
175 201 235 245 235 193 161 247 231 197 206 202 133 199 262 261 224 216 209 200 189 178 173 179 179 164 161 166 168 178 178 173 167 166 167 169 170 164 155 154 158 153 150 160
199 221 256 252 237 140 182 235 216 192 199 188 193 215 247 257 231 211 200 191 174 167 176 186 172 162 167 172 184 185 169 160 161 164 166 164 159 156 150 150 146 147 150 153
182 210 245 240 160 185 215 221 194 199 199 197 214 239 253 234 224 207 193 177 168 170 181 178 168 166 172 185 185 166 159 159 163 162 163 158 151 152 150 149 148 152 149 147
196 218 238 218 213 225 192 197 214 207 220 202 208 231 248 245 238 216 193 181 175 171 171 175 174 174 180 185 165 158 157 162 164 160 157 153 155 155 150 154 159 164 162 170
232 250 250 252 248 242 222 221 229 223 221 208 213 221 226 237 238 222 199 186 174 164 170 184 185 183 183 169 160 159 162 163 158 156 156 154 157 161 164 169 170 173 175 180
245 265 274 256 244 247 256 251 244 253 235 218 208 214 213 225 231 219 201 186 178 177 182 188 184 184 173 163 158 160 163 164 161 161 160 160 162 170 177 186 185 182 189 183
235 237 230 249 256 257 252 250 238 239 249 240 210 208 210 220 222 213 198 183 178 182 181 180 174 179 176 169 164 161 164 168 168 164 163 161 157 141 137 171 183 184 178 172
245 258 252 258 265 261 254 251 241 228 223 233 227 204 202 214 212 205 194 183 185 186 182 174 168 174 177 169 165 166 169 171 169 167 166 166 164 162 155 104 126 162 171 170
251 260 269 266 261 266 255 250 249 246 238 226 215 200 193 198 199 199 200 198 193 182 174 169 167 180 180 166 162 164 164 167 166 169 169 168 169 168 163 158 151 130 145 160
258 250 251 261 263 266 260 244 236 242 245 236 201 189 185 188 202 216 210 191 173 171 172 170 170 181 174 165 163 162 162 166 165 162 160 159 156 154 154 154 152 144 123 127
266 267 258 257 261 259 246 229 230 240 233 222 201 198 197 193 194 202 195 171 165 179 187 181 184 182 170 165 159 157 161 160 156 153 151 151 152 152 153 154 152 153 157 155
253 259 258 261 261 257 242 230 222 224 223 216 208 190 174 163 164 185 196 182 178 183 185 184 187 172 166 162 157 157 156 158 152 149 156 158 159 160 161 162 164 165 168 165
238 245 246 241 244 245 250 243 226 219 216 216 196 173 175 175 185 200 191 155 139 148 178 183 173 163 159 157 153 153 154 157 159 158 158 158 158 159 160 162 165 163 154 154
250 251 253 252 245 232 230 237 232 224 216 187 178 186 193 194 193 190 163 151 155 175 203 178 163 159 158 160 150 149 153 154 155 156 157 157 155 157 158 161 165 165 160 154
271 260 256 256 244 221 221 225 214 216 211 180 176 175 182 196 188 170 160 172 190 196 188 172 163 161 159 160 149 153 156 158 158 157 157 160 162 163 163 165 165 163 160 159
303 285 261 242 237 230 215 204 191 200 202 179 178 182 185 191 174 158 156 173 210 168 167 159 159 164 161 160 154 156 159 160 160 162 164 165 166 165 168 168 167 166 163 160
318 304 275 209 164 210 250 185 177 176 174 173 175 164 158 172 164 152 170 186 185 164 156 161 165 167 162 154 156 158 160 160 160 161 164 166 169 170 170 170 169 167 164 162
345 4 69 113 133 134 67 65 117 148 162 171 174 170 171 178 175 170 189 193 169 162 152 165 168 164 157 153 156 159 160 160 161 164 167 170 173 173 171 169 168 166 165 164
2 9 21 54 84 88 68 20 29 43 79 170 181 174 164 158 166 192 179 168 162 152 148 160 157 158 151 149 152 154 158 159 160 163 165 166 167 165 165 165 164 164 163 162
9 18 40 62 73 74 75 57 45 38 40 42 61 100 158 166 173 171 153 158 152 137 135 152 152 149 147 148 152 155 157 162 161 161 163 163 164 163 164 164 165 165 165 167
8 13 16 26 95 172 146 110 96 77 88 77 47 45 80 103 128 143 142 144 145 138 136 145 150 145 149 150 149 151 153 157 157 159 160 161 161 161 162 164 162 165 166 164
16 17 22 24 17 27 79 112 123 117 136 146 152 104 101 109 118 123 121 125 128 122 124 134 141 142 140 139 137 138 141 141 145 151 153 155 159 163 165 163 163 161 161 161
Height
1505 1503 1503 1504 1504 1507 1510 1513 1519 1513 1510 1500 1496 1494 1494 1494 1494 1495 1496 1496 1498 1500 1502 1505 1507 1510 1512 1515 1519 1521 1524 1527 1530 1533 1535 1538 1540 1542 1544 1546 1548 1550 1551 1553
1505 1501 1501 1502 1499 1501 1502 1504 1506 1506 1503 1494 1492 1492 1492 1492 1492 1493 1493 1494 1496 1498 1500 1503 1505 1508 1510 1513 1516 1519 1522 1525 1528 1530 1533 1536 1538 1540 1543 1545 1547 1549 1550 1552
1511 1504 1502 1504 1494 1495 1496 1495 1497 1501 1496 1491 1491 1490 1489 1490 1490 1490 1491 1492 1494 1495 1498 1500 1503 1506 1508 1511 1514 1517 1520 1523 1525 1528 1531 1533 1536 1538 1541 1543 1545 1547 1549 1551
1513 1508 1511 1495 1485 1486 1489 1489 1488 1488 1487 1487 1487 1487 1486 1487 1488 1488 1489 1490 1492 1493 1495 1498 1501 1504 1506 1509 1512 1515 1518 1520 1523 1526 1528 1531 1534 1536 1539 1542 1544 1546 1548 1549
1514 1512 1503 1490 1482 1482 1486 1487 1482 1483 1484 1484 1485 1485 1484 1484 1485 1486 1487 1488 1490 1491 1493 1496 1498 1501 1504 1507 1510 1512 1515 1518 1521 1523 1526 1529 1532 1535 1537 1540 1542 1544 1546 1548
1511 1510 1506 1488 1478 1476 1481 1486 1479 1479 1481 1482 1483 1488 1484 1482 1483 1484 1485 1486 1488 1490 1491 1494 1496 1499 1502 1504 1507 1510 1512 1515 1519 1521 1524 1527 1530 1533 1535 1538 1540 1542 1545 1546
1506 1505 1495 1479 1475 1477 1489 1484 1475 1475 1477 1479 1480 1481 1481 1480 1481 1482 1483 1484 1486 1487 1489 1491 1494 1496 1499 1502 1505 1508 1511 1514 1516 1519 1522 1525 1528 1531 1533 1536 1538 1540 1542 1544
1501 1501 1493 1473 1474 1477 1475 1471 1471 1472 1474 1476 1477 1477 1478 1478 1478 1479 1480 1481 1483 1485 1487 1489 1491 1494 1496 1499 1503 1506 1509 1512 1514 1517 1520 1523 1526 1528 1531 1533 1536 1538 1540 1542
1484 1481 1471 1469 1469 1468 1468 1469 1469 1470 1472 1474 1474 1475 1475 1475 1476 1476 1477 1479 1481 1483 1485 1487 1489 1491 1494 1497 1500 1503 1507 1509 1512 1515 1518 1520 1523 1525 1528 1530 1532 1534 1537 1539
1476 1470 1467 1466 1466 1466 1467 1467 1467 1468 1470 1471 1471 1472 1472 1473 1473 1474 1475 1476 1478 1480 1482 1484 1487 1489 1492 1495 1498 1501 1504 1507 1509 1512 1515 1517 1520 1523 1525 1527 1529 1531 1533 1535
1470 1466 1464 1462 1462 1463 1464 1464 1465 1466 1467 1468 1468 1469 1469 1470 1470 1471 1472 1474 1476 1477 1479 1482 1484 1487 1489 1492 1495 1498 1501 1504 1506 1509 1512 1514 1517 1520 1522 1524 1526 1528 1530 1532
1465 1462 1462 1459 1459 1460 1461 1460 1461 1462 1463 1464 1465 1465 1466 1467 1468 1469 1470 1471 1473 1475 1477 1479 1481 1484 1486 1489 1492 1495 1498 1500 1503 1506 1508 1511 1513 1516 1519 1521 1523 1525 1527 1529
1458 1457 1457 1455 1455 1456 1457 1457 1458 1459 1459 1460 1461 1462 1463 1464 1465 1466 1467 1468 1470 1472 1474 1476 1478 1480 1483 1486 1488 1491 1494 1497 1499 1502 1505 1507 1510 1512 1514 1517 1519 1522 1523 1525
1454 1454 1452 1451 1451 1452 1452 1453 1454 1454 1455 1456 1457 1458 1459 1460 1461 1462 1463 1465 1467 1469 1471 1473 1475 1477 1480 1482 1485 1488 1491 1493 1496 1498 1501 1504 1506 1508 1511 1513 1515 1517 1520 1522
1450 1450 1449 1447 1447 1447 1448 1449 1449 1450 1451 1451 1453 1454 1455 1456 1457 1458 1460 1462 1464 1466 1468 1470 1472 1474 1477 1479 1482 1484 1487 1490 1493 1495 1498 1500 1503 1505 1508 1510 1512 1514 1516 1519
1444 1444 1444 1443 1442 1443 1444 1445 1445 1445 1446 1447 1448 1450 1451 1453 1454 1455 1457 1458 1460 1462 1464 1466 1469 1471 1474 1476 1479 1481 1484 1487 1489 1492 1494 1497 1499 1502 1504 1506 1509 1511 1513 1515
1440 1439 1439 1438 1439 1439 1439 1440 1441 1441 1442 1443 1445 1446 1448 1450 1451 1452 1454 1456 1458 1459 1461 1463 1466 1468 1471 1473 1476 1478 1481 1484 1486 1489 1491 1494 1496 1498 1501 1503 1505 1507 1510 1512
1435 1434 1434 1435 1434 1435 1435 1436 1437 1438 1439 1440 1441 1443 1445 1446 1448 1449 1451 1453 1455 1457 1459 1461 1463 1465 1468 1470 1472 1475 1478 1480 1483 1485 1488 1491 1493 1496 1498 1500 1502 1504 1506 1509
1428 1428 1429 1429 1430 1430 1431 1432 1433 1434 1435 1436 1438 1440 1442 1443 1445 1446 1448 1450 1452 1454 1456 1459 1461 1463 1465 1467 1470 1472 1475 1477 1480 1483 1485 1488 1491 1493 1495 1497 1499 1501 1504 1505
1422 1423 1423 1424 1425 1426 1427 1428 1430 1431 1432 1433 1435 1437 1439 1440 1442 1444 1446 1448 1449 1451 1454 1456 1458 1460 1462 1465 1467 1469 1472 1474 1477 1480 1482 1485 1487 1490 1492 1494 1497 1499 1501 1503
1419 1418 1419 1420 1421 1423 1424 1425 1426 1427 1429 1430 1432 1433 1436 1437 1440 1442 1443 1445 1448 1450 1452 1453 1455 1457 1459 1462 1464 1467 1469 1472 1474 1477 1479 1482 1484 1487 1489 1491 1493 1495 1497 1499
1416 1416 1416 1417 1418 1420 1421 1422 1423 1424 1426 1427 1429 1431 1433 1435 1437 1439 1441 1443 1445 1447 1448 1450 1452 1454 1456 1459 1461 1464 1466 1469 1471 1474 1476 1479 1481 1484 1486 1488 1490 1492 1494 1496
1415 1415 1415 1416 1417 1418 1419 1421 1422 1423 1423 1425 1426 1428 1430 1432 1434 1436 1438 1440 1442 1444 1445 1448 1450 1452 1454 1456 1458 1461 1463 1465 1468 1470 1473 1476 1478 1480 1483 1485 1487 1489 1491 1493
1415 1415 1415 1416 1417 1417 1418 1419 1420 1421 1422 1423 1425 1426 1428 1430 1432 1434 1436 1437 1439 1441 1443 1445 1447 1449 1451 1453 1455 1457 1460 1462 1465 1467 1470 1472 1475 1477 1479 1481 1484 1486 1488 1490
1415 1415 1415 1416 1416 1417 1418 1418 1419 1420 1421 1422 1423 1425 1427 1428 1429 1431 1433 1434 1436 1438 1440 1442 1444 1446 1448 1450 1452 1454 1456 1459 1461 1464 1466 1469 1471 1474 1476 1478 1480 1482 1484 1486
1415 1415 1415 1416 1416 1417 1417 1418 1418 1419 1420 1420 1422 1423 1425 1426 1427 1429 1430 1432 1434 1436 1438 1439 1442 1444 1445 1447 1449 1451 1453 1456 1458 1461 1463 1465 1468 1470 1472 1474 1476 1478 1480 1482
1415 1415 1415 1415 1416 1416 1416 1417 1417 1418 1418 1419 1420 1421 1423 1424 1425 1427 1428 1430 1432 1433 1436 1437 1439 1441 1443 1445 1447 1449 1451 1453 1455 1457 1460 1462 1464 1466 1468 1471 1473 1475 1477 1479